Regional Weather Roundup
Issued by NWS

Home | Current Version | Previous Version | Graphics & Text | Print | Product List | Glossary On
Versions: 1 2 3 4 5 6 7 8 9 10 11 12 13 14 15 16 17 18 19 20 21 22 23 24 25 26 27 28 29 30 31 32 33 34 35 36 37 38 39 40 41 42 43 44 45 46 47 48 49 50
793
ASUS45 KTFX 242310
RWRMT
MONTANA REGIONAL WEATHER ROUNDUP
NATIONAL WEATHER SERVICE GREAT FALLS MT
500 PM MDT SUN JUL 24 2016

NOTE: "FAIR" INDICATES FEW OR NO CLOUDS BELOW 12000 FEET WITH NO
SIGNIFICANT WEATHER AND/OR OBSTRUCTIONS TO VISIBILITY.

MTZ001>007-043-250000-
WEST OF THE DIVIDE

CITY           SKY/WX    TMP DP  RH WIND       PRES   REMARKS
KALISPELL      SUNNY     80  48  32 SE9       30.05F
MISSOULA       SUNNY     85  40  20 W6        30.04F
BUTTE          SUNNY     82  31  15 CALM      30.15F
MULLAN PASS    SUNNY     69  45  41 CALM      30.24S
ANACONDA         N/A     82  39  21 N8        30.11F
DEER LODGE       N/A     81  37  21 N7        30.13F
EUREKA           N/A     84  46  26 W3        30.02F
HAMILTON         N/A     82  43  24 N7        30.05F
LIBBY            N/A     84  46  26 N7        30.03F
PLAINS           N/A     89  44  20 E3        30.02F
RONAN            N/A     81  44  26 E5        30.11F
THOMPSON FALLS   N/A     87  49  26 NW1       30.05F
$$

MTZ008-052>055-250000-
SOUTHWEST MONTANA

CITY           SKY/WX    TMP DP  RH WIND       PRES   REMARKS
BOZEMAN        SUNNY     84  42  22 N8        30.09F
DILLON         SUNNY     83  41  22 SW7       30.10F
W YELLOWSTONE  SUNNY     77  28  16 SW15G23   30.25S
ENNIS          SUNNY     84  32  15 NW8       30.17F
THREE FORKS      N/A     87  87 100 E5        30.06F HX 116
$$

MTZ009-010-012-014-046-048-049-054-250000-
EAST SLOPES AND CENTRAL MONTANA

CITY           SKY/WX    TMP DP  RH WIND       PRES   REMARKS
CUT BANK         N/A     83  40  21 SW9G22    30.02F
GREAT FALLS    SUNNY     85  32  15 W8        30.03F
MALMSTROM AFB  SUNNY     83  35  17 SW6G15    30.02F
HELENA         SUNNY     88  36  15 NE9G21    30.03F
CHOTEAU          N/A     84  36  17 VRB5G13   30.05F
CONRAD           N/A     84  44  24 S1        30.05F
$$

MTZ011-013-016-021-045-047-050-051-250000-
NORTH CENTRAL MONTANA

CITY           SKY/WX    TMP DP  RH WIND       PRES   REMARKS
HAVRE          SUNNY     86  39  19 S12       29.98F
LEWISTOWN      SUNNY     81  46  29 VRB5      30.08F
N BAR RANCH      N/A     82  39  21 NE8       30.10S
CHINOOK          N/A     84  39  20 S3        29.98F
$$

MTZ017>020-022>027-061-062-250000-
NORTHEAST MONTANA

CITY           SKY/WX    TMP DP  RH WIND       PRES   REMARKS
GLASGOW        SUNNY     87  45  23 VRB6      29.97F
JORDAN           N/A     90  41  18 NW9G18    30.00S
SIDNEY         MOSUNNY   84  56  38 S6        29.99F
WOLF POINT     MOSUNNY   89  47  23 VRB3      29.96F
PLENTYWOOD       N/A     82  54  36 NW6       29.99F
POPLAR           N/A     88  52  29 SE6       29.98S
SCOBEY           N/A    103  70  34 SW5       30.00S HX 111
$$

MTZ028>42-056>058-250000-
SOUTHCENTRAL AND SOUTHEAST MONTANA

CITY           SKY/WX    TMP DP  RH WIND       PRES   REMARKS
BAKER          MOSUNNY   87  45  23 E6        30.05F
BILLINGS       MOSUNNY   89  38  16 SW6       30.03F
LIVINGSTON     SUNNY     88  37  16 W8        30.07F
MILES CITY     SUNNY     92  41  17 S6        29.98F
EKALAKA          N/A     87  41  19 SE6       30.05F
FORSYTH          N/A     91  43  18 NW3       29.98S
LAUREL           N/A     89  44  20 E5        30.03F
ROUNDUP          N/A     87  37  17 W2        29.95F
$$

REGIONAL REPORTS...DAKOTAS

CITY           SKY/WX    TMP DP  RH WIND       PRES   REMARKS
WILLISTON      MOSUNNY   86  50  28 W9        30.00S
MINOT          SUNNY     84  56  38 W13       29.99S
DICKINSON      SUNNY     83  48  29 NW8       30.04F
BEACH            N/A     84  43  23 CALM      30.07S
CROSBY           N/A     79  59  50 N6        30.02S
WATFORD CITY     N/A    N/A N/A N/A MISG        N/A
BISMARCK       SUNNY     84  54  35 W9        30.02S
GRAND FORKS    MOSUNNY   79  61  53 W13       29.90R
FARGO          SUNNY     81  55  40 W18G24    29.94R
BUFFALO SD       N/A     89  42  19 VRB5      30.01S
RAPID CITY     SUNNY     87  47  24 S9G18     30.08F
$$

REGIONAL REPORTS...WYOMING/IDAHO/WASHINGTON

CITY           SKY/WX    TMP DP  RH WIND       PRES   REMARKS
GILLETTE       SUNNY     85  39  19 S5G20     30.10F
SHERIDAN       SUNNY     90  38  16 CALM      30.05F
BUFFALO WY     SUNNY     88  39  17 E7G16     30.13F
CODY           SUNNY     84  37  18 CALM      30.11F
YELLOWSTONE LA   N/A     75  21  13 VRB5      30.35S
IDAHO FALLS    SUNNY     86  30  13 SW9       30.13F
SALMON         SUNNY     88  39  18 NW5       30.00F
BOISE          SUNNY     91  32  12 N7        29.99F
SPOKANE        MOSUNNY   85  43  22 NE8       30.04F
$$

REGIONAL REPORTS...ALBERTA

CITY           SKY/WX    TMP DP  RH WIND       PRES   REMARKS
EDMONTON       MOSUNNY   81  48  32 W13G18    29.86S
CALGARY        MOSUNNY   77  50  38 S15G21    29.95F
LETHBRIDGE     MOSUNNY   82  48  30 W13       29.97F
MEDICINE HAT   MOSUNNY   82  54  36 SW10      29.95F
WATERTON GATE    N/A     77  48  36 SW17G24     N/A
CARDSTON         N/A     81  46  30 W6          N/A
MILK RIVER       N/A     84  41  21 S6          N/A
$$

REGIONAL REPORTS...SASKATCHEWAN

CITY           SKY/WX    TMP DP  RH WIND       PRES   REMARKS
SWIFT CURRENT  MOSUNNY   79  57  47 SW8       29.99F
REGINA         MOSUNNY   77  54  44 NW10      29.99S
SASKATOON      MOSUNNY   79  57  47 SW15      29.93F
CYPRESS HILLS    N/A     77  48  36 S3          N/A
VAL MARIE        N/A     82  45  26 SW7         N/A
ROCKGLEN         N/A     81  48  32 W3          N/A
ASSINIBOIA       N/A     81  55  41 SW13G18     N/A
$$




USA.gov is the U.S. government's official web portal to all federal, state and local government web resources and services.